TimeEDT,TemperatureF,Dew PointF,Humidity,Sea Level PressureIn,VisibilityMPH,Wind Direction,Wind SpeedMPH,Gust SpeedMPH,PrecipitationIn,Events,Conditions,WindDirDegrees,DateUTC
12:51 AM,48.0,28.9,48,29.99,10.0,SSE,3.5,-,N/A,,Clear,160,2013-03-31 04:51:00
1:51 AM,48.0,30.9,52,29.96,10.0,SSE,8.1,-,N/A,,Overcast,150,2013-03-31 05:51:00
2:51 AM,48.9,30.9,50,29.93,10.0,SSE,8.1,-,N/A,,Overcast,150,2013-03-31 06:51:00
3:51 AM,48.9,33.1,54,29.91,10.0,SSE,8.1,-,N/A,,Overcast,150,2013-03-31 07:51:00
4:51 AM,46.9,37.9,71,29.92,10.0,WSW,12.7,19.6,0.00,Rain,Light Rain,240,2013-03-31 08:51:00
5:51 AM,43.0,41.0,93,29.90,5.0,Calm,Calm,-,0.14,Rain,Rain,0,2013-03-31 09:51:00
6:51 AM,44.1,39.9,85,29.87,10.0,SE,9.2,-,0.03,,Overcast,140,2013-03-31 10:51:00
7:51 AM,44.1,41.0,89,29.86,10.0,SE,10.4,-,0.00,,Overcast,140,2013-03-31 11:51:00
8:51 AM,45.0,41.0,86,29.86,10.0,SSE,9.2,-,N/A,,Overcast,150,2013-03-31 12:51:00
9:07 AM,44.6,42.8,93,29.85,10.0,SSE,10.4,-,N/A,,Overcast,150,2013-03-31 13:07:00
9:48 AM,46.4,42.8,87,29.83,5.0,SSE,5.8,-,N/A,,Overcast,160,2013-03-31 13:48:00
9:51 AM,46.0,43.0,89,29.84,4.0,SSE,6.9,-,N/A,,Overcast,160,2013-03-31 13:51:00
10:39 AM,46.4,44.6,93,29.83,7.0,South,8.1,-,0.00,Rain,Light Rain,190,2013-03-31 14:39:00
10:51 AM,48.0,45.0,89,29.83,8.0,SW,9.2,-,0.00,,Overcast,220,2013-03-31 14:51:00
11:51 AM,48.9,46.0,90,29.82,3.0,WSW,13.8,19.6,0.02,Rain,Light Rain,240,2013-03-31 15:51:00
12:51 PM,48.9,46.0,90,29.81,10.0,West,10.4,19.6,0.00,,Overcast,260,2013-03-31 16:51:00
1:08 PM,48.2,46.4,93,29.80,10.0,WSW,8.1,18.4,N/A,,Overcast,250,2013-03-31 17:08:00
1:51 PM,48.9,45.0,86,29.81,10.0,West,10.4,21.9,N/A,,Overcast,280,2013-03-31 17:51:00
2:36 PM,50.0,46.4,87,29.81,10.0,West,11.5,16.1,N/A,,Overcast,260,2013-03-31 18:36:00
2:51 PM,51.1,46.0,83,29.80,10.0,West,9.2,17.3,N/A,,Overcast,270,2013-03-31 18:51:00
2:59 PM,51.8,44.6,76,29.81,10.0,West,15.0,23.0,N/A,,Overcast,270,2013-03-31 18:59:00
3:21 PM,50.0,44.6,82,29.82,8.0,West,13.8,-,0.00,Rain,Light Rain,260,2013-03-31 19:21:00
3:51 PM,50.0,46.0,86,29.82,9.0,West,15.0,23.0,0.00,Rain,Light Rain,260,2013-03-31 19:51:00
4:08 PM,50.0,46.4,87,29.83,10.0,West,12.7,20.7,0.00,Rain,Light Rain,260,2013-03-31 20:08:00
4:33 PM,50.0,46.4,87,29.83,10.0,West,12.7,19.6,0.00,,Overcast,260,2013-03-31 20:33:00
4:51 PM,50.0,45.0,83,29.82,10.0,West,17.3,21.9,0.00,,Overcast,270,2013-03-31 20:51:00
5:14 PM,50.0,44.6,82,29.82,10.0,West,16.1,-,N/A,,Mostly Cloudy,270,2013-03-31 21:14:00
5:22 PM,50.0,44.6,82,29.81,10.0,West,12.7,21.9,N/A,,Mostly Cloudy,260,2013-03-31 21:22:00
5:51 PM,51.1,45.0,80,29.82,10.0,WSW,9.2,-,N/A,,Mostly Cloudy,250,2013-03-31 21:51:00
6:18 PM,51.8,44.6,76,29.81,10.0,West,15.0,18.4,N/A,,Mostly Cloudy,270,2013-03-31 22:18:00
6:51 PM,50.0,43.0,77,29.81,10.0,WSW,9.2,-,N/A,,Scattered Clouds,250,2013-03-31 22:51:00
7:40 PM,48.2,42.8,82,29.83,10.0,West,10.4,-,N/A,,Mostly Cloudy,270,2013-03-31 23:40:00
7:51 PM,48.9,41.0,74,29.84,10.0,West,15.0,-,N/A,,Mostly Cloudy,270,2013-03-31 23:51:00
8:01 PM,48.2,41.0,76,29.83,10.0,West,11.5,-,N/A,,Mostly Cloudy,270,2013-04-01 00:01:00
8:29 PM,48.2,41.0,76,29.83,10.0,West,9.2,-,N/A,,Mostly Cloudy,270,2013-04-01 00:29:00
8:51 PM,46.9,39.9,77,29.85,10.0,West,6.9,-,N/A,,Scattered Clouds,280,2013-04-01 00:51:00
9:51 PM,45.0,39.9,82,29.86,10.0,NW,4.6,-,N/A,,Scattered Clouds,310,2013-04-01 01:51:00
10:03 PM,46.4,39.2,76,29.85,10.0,NW,4.6,-,N/A,,Mostly Cloudy,310,2013-04-01 02:03:00
10:37 PM,46.4,39.2,76,29.86,10.0,WNW,9.2,-,N/A,,Overcast,300,2013-04-01 02:37:00
10:51 PM,46.0,39.9,79,29.86,10.0,WNW,5.8,-,N/A,,Overcast,300,2013-04-01 02:51:00
11:36 PM,44.6,39.2,81,29.85,10.0,WNW,5.8,-,N/A,,Mostly Cloudy,300,2013-04-01 03:36:00
11:43 PM,44.6,39.2,81,29.85,10.0,WNW,5.8,-,N/A,,Scattered Clouds,300,2013-04-01 03:43:00
11:51 PM,45.0,39.0,80,29.86,10.0,WNW,4.6,-,N/A,,Scattered Clouds,300,2013-04-01 03:51:00